DateTimeUTC,F1_A11,F1_S11,BsB_S11,BsG_S11,BsR_S11,BbsB_S11,BbsG_S11,BbsR_S11,BaB_A11,BaG_A11,BaR_A11,Tu_S11,T_S11,Uu_S11,U_S11,P_S11,T1_A11
2021-07-26T08:00:00Z,00000200,20000000,,,,,,,-000.01,-000.06,-000.06,18.1,24.9,06.7,04.4,0674.5,31.0
2021-07-26T08:01:00Z,00000200,20000000,,,,,,,0000.21,-000.47,0000.24,18.0,24.9,06.7,04.4,0674.5,31.0
2021-07-26T08:02:00Z,00000200,20000000,,,,,,,-000.42,0000.26,-000.58,18.0,24.9,06.7,04.4,0674.6,31.0
2021-07-26T08:03:00Z,00000200,60000000,,,,,,,-000.09,-000.19,0000.41,18.0,24.9,06.7,04.4,0674.6,31.0
2021-07-26T08:04:00Z,00000200,40000000,0000.96,0000.37,0000.53,0000.30,-000.22,0000.35,0000.32,0000.31,-000.12,18.1,24.7,06.7,04.5,0675.6,31.0
2021-07-26T08:05:00Z,00000200,00000000,0000.12,0000.28,0000.46,0000.17,0000.32,0000.28,0000.12,0000.03,-000.08,18.2,24.7,06.6,04.5,0675.7,31.0
2021-07-26T08:06:00Z,00000200,00000000,0000.12,0000.06,0000.37,-000.16,0000.20,0000.06,0000.05,0000.42,0000.33,18.2,24.7,06.6,04.5,0675.7,31.0
2021-07-26T08:07:00Z,00000200,00000000,0000.12,0000.16,0000.44,0000.02,0000.39,0000.38,-000.14,-000.35,-000.04,18.2,24.6,06.6,04.4,0675.7,31.0
2021-07-26T08:08:00Z,00000200,00000000,0000.31,0000.52,0000.23,0000.33,0000.39,0000.01,0000.08,-000.05,-000.07,18.2,24.6,06.6,04.4,0675.7,31.0
2021-07-26T08:09:00Z,00000200,00000000,0000.37,0000.09,0000.51,-000.20,-000.12,-000.06,0000.08,0000.06,0000.18,18.2,24.6,06.5,04.3,0675.7,31.0
2021-07-26T08:10:00Z,00000200,00000000,0000.10,0000.23,0000.43,-000.27,-000.19,0000.19,0000.12,0000.17,-000.24,18.2,24.6,06.5,04.4,0675.7,31.0
2021-07-26T08:11:00Z,00000200,00000000,-000.56,0000.30,0000.60,-000.35,0000.08,0000.41,-000.00,-000.05,0000.00,18.2,24.6,06.5,04.4,0675.7,31.0
2021-07-26T08:12:00Z,00000200,00000000,0000.19,0000.31,0000.42,0000.37,-000.25,0000.14,0000.09,-000.03,0000.30,18.2,24.6,06.5,04.4,0675.8,31.0
2021-07-26T08:13:00Z,00000200,00000000,0000.50,0000.23,0000.42,0000.00,0000.48,0000.06,-000.07,-000.12,-000.09,18.2,24.6,06.5,04.4,0675.8,31.0
2021-07-26T08:14:00Z,00000200,00000000,0000.45,0000.32,0000.29,-000.00,-000.07,0000.17,0000.62,0000.64,0000.33,18.2,24.6,06.5,04.4,0675.8,31.0
2021-07-26T08:15:00Z,00000200,00000000,-000.13,0000.28,0000.34,0000.05,0000.05,0000.28,-000.46,-000.25,0000.03,18.2,24.6,06.6,04.4,0675.8,31.0
2021-07-26T08:16:00Z,00000200,00000000,0000.33,0000.36,0000.42,0000.09,0000.19,0000.18,0000.19,-000.06,-000.06,18.2,24.6,06.6,04.4,0675.8,31.0
2021-07-26T08:17:00Z,00000200,00000000,0001.19,0000.28,0000.19,0000.18,0000.05,-000.20,0000.03,0000.14,-000.24,18.2,24.6,06.6,04.5,0675.8,31.0
2021-07-26T08:18:00Z,00000200,00000000,0000.14,0000.29,0000.30,0000.57,0000.17,0000.07,0000.02,-000.08,0000.26,18.2,24.6,06.5,04.4,0675.9,31.0
2021-07-26T08:19:00Z,00000200,00000000,-000.45,0000.10,0000.38,0000.45,-000.01,0000.06,0000.29,0000.60,0000.19,18.2,24.6,06.5,04.4,0675.9,31.0
2021-07-26T08:20:00Z,00000200,00000000,-000.36,0000.45,0000.60,0000.18,-000.13,0000.02,0000.30,-000.08,0000.10,18.2,24.6,06.6,04.5,0675.9,31.0
2021-07-26T08:21:00Z,00000200,00000000,0000.23,0000.29,0000.50,0000.06,0000.25,-000.13,0000.25,0000.31,0000.15,18.2,24.6,06.7,04.5,0675.9,31.0
2021-07-26T08:22:00Z,00000200,00000000,0001.16,0000.30,0000.37,0000.02,0000.34,0000.29,0000.15,0000.20,0000.03,18.2,24.6,06.8,04.6,0675.9,31.0
2021-07-26T08:23:00Z,00000200,00000000,0000.42,0000.33,0000.47,0000.27,0000.43,0000.50,0000.08,0000.14,0000.31,18.2,24.5,06.9,04.6,0675.9,31.0
2021-07-26T08:24:00Z,00000200,00000000,-000.05,0000.10,0000.48,0000.10,0000.15,0000.07,0000.40,0000.14,-000.06,18.2,24.5,06.9,04.7,0675.9,31.0
2021-07-26T08:25:00Z,00000200,00000000,0000.10,0000.23,0000.19,-000.40,0000.08,-000.25,0000.08,-000.10,0000.13,18.2,24.5,06.9,04.7,0676.0,31.0
2021-07-26T08:26:00Z,00000200,00000000,0001.02,0000.46,0000.34,0000.22,0000.51,0000.05,0000.13,0000.55,0000.39,18.2,24.5,07.0,04.7,0676.0,31.0
2021-07-26T08:27:00Z,00000200,00000000,0000.37,-000.19,0000.42,0000.47,0000.04,-000.09,-000.23,0000.02,-000.22,18.2,24.5,07.0,04.7,0676.0,31.0
2021-07-26T08:28:00Z,00000200,00000000,0000.32,0000.30,0000.26,0000.34,0000.24,0000.07,0000.51,0000.23,0000.21,18.2,24.5,06.9,04.6,0676.0,31.0
2021-07-26T08:29:00Z,00000200,00000000,0000.26,0000.35,0000.32,0000.31,-000.00,0000.23,-000.01,-000.06,0000.10,18.1,24.5,06.9,04.7,0676.0,31.0
2021-07-26T08:30:00Z,00000200,00000000,0000.68,0000.05,0000.36,0000.40,0000.23,0000.32,0000.05,0000.10,0000.02,18.1,24.5,07.0,04.7,0676.0,31.0
2021-07-26T08:31:00Z,00000200,00000000,0000.63,0000.09,0000.54,-000.05,0000.14,0000.15,0000.04,0000.00,-000.04,18.1,24.5,06.9,04.7,0676.0,31.0
2021-07-26T08:32:00Z,00000200,00000000,0000.32,0000.31,0000.25,0000.01,-000.10,-000.07,0000.07,0000.12,0000.35,18.1,24.5,06.8,04.6,0676.0,31.0
2021-07-26T08:33:00Z,00000200,00000000,0000.62,0000.32,0000.21,0000.39,-000.14,0000.11,0000.07,-000.26,-000.11,18.1,24.5,06.8,04.6,0676.0,31.0
2021-07-26T08:34:00Z,00000200,00000000,0000.77,0000.33,-000.04,0000.07,0000.16,-000.04,0000.10,0000.62,-000.00,18.1,24.5,06.9,04.6,0676.0,31.0
2021-07-26T08:35:00Z,00000200,00000000,0000.11,0000.02,0000.55,0000.46,-000.01,-000.03,0000.12,-000.15,0000.02,18.2,24.5,06.9,04.6,0676.0,31.0
2021-07-26T08:36:00Z,00000200,00000000,0001.12,0000.26,0000.31,0000.35,0000.23,0000.03,0000.25,0000.56,0000.28,18.2,24.5,07.0,04.7,0676.0,31.0
2021-07-26T08:37:00Z,00000200,00000000,0000.14,0000.25,0000.70,0000.00,0000.04,0000.43,0000.41,-000.21,0000.11,18.1,24.5,07.0,04.7,0676.1,31.0
2021-07-26T08:38:00Z,00000200,00000000,-000.04,0000.18,0000.48,-000.08,0000.28,0000.56,0000.33,0000.58,0000.48,18.1,24.5,07.1,04.8,0676.1,31.0
2021-07-26T08:39:00Z,00000200,00000000,0000.12,0000.31,0000.45,0000.34,0000.09,0000.00,-000.32,-000.26,-000.10,18.1,24.5,07.1,04.8,0676.1,31.0
2021-07-26T08:40:00Z,00000200,00000000,0000.32,0000.51,0000.32,-000.02,0000.14,0000.30,0000.22,0000.42,-000.10,18.1,24.5,07.1,04.8,0676.0,31.0
2021-07-26T08:41:00Z,00000200,00000000,0000.21,0000.36,0000.49,0000.01,0000.11,0000.24,0000.41,0000.45,0000.71,18.1,24.5,07.2,04.9,0676.1,31.0
2021-07-26T08:42:00Z,00000200,00000000,0000.09,0000.23,0000.67,0000.23,0000.11,0000.24,0000.20,0000.16,-000.07,18.1,24.5,07.3,04.9,0676.1,31.0
2021-07-26T08:43:00Z,00000200,00000000,0000.13,0000.34,0000.40,0000.10,0000.08,0000.01,0000.03,-000.18,0000.11,18.1,24.5,07.3,05.0,0676.1,31.0
2021-07-26T08:44:00Z,00000200,00000000,0000.49,0000.11,0000.49,-000.49,0000.20,-000.28,-000.03,0000.15,-000.32,18.1,24.5,07.3,05.0,0676.2,31.0
2021-07-26T08:45:00Z,00000200,00000000,0000.86,0000.11,0000.49,-000.32,0000.07,0000.06,0000.31,0000.09,0000.30,18.2,24.5,07.3,04.9,0676.2,31.0
2021-07-26T08:46:00Z,00000200,00000000,-000.07,-000.15,0000.38,0000.44,0000.21,0000.21,0000.07,-000.01,0000.33,18.3,24.5,07.1,04.8,0676.2,31.0
2021-07-26T08:47:00Z,00000200,00000000,0000.05,0000.32,0000.45,0000.13,0000.43,-000.02,-000.09,0000.18,-000.22,18.3,24.6,07.1,04.8,0676.2,31.0
2021-07-26T08:48:00Z,00000200,00000000,0000.08,0000.20,0000.32,-000.23,0000.15,0000.16,-000.13,-000.39,-000.22,18.3,24.6,06.8,04.6,0676.2,31.0
2021-07-26T08:49:00Z,00000200,00000000,0000.05,0000.53,0000.39,0000.28,-000.14,0000.29,-000.07,-000.02,-000.14,18.3,24.6,06.8,04.6,0676.2,31.0
2021-07-26T08:50:00Z,00000200,00000000,0000.07,0000.33,0000.42,-000.35,0000.26,0000.08,0000.22,0000.42,0000.48,18.3,24.6,06.6,04.5,0676.2,31.0
2021-07-26T08:51:00Z,00000200,00000000,0000.62,0000.04,0000.19,0000.47,0000.20,-000.21,0000.38,0000.01,0000.15,18.3,24.6,06.8,04.6,0676.2,31.0
2021-07-26T08:52:00Z,00000200,00000000,0000.65,0000.23,0000.32,-000.11,-000.02,0000.11,0000.16,0000.12,-000.10,18.3,24.6,06.9,04.7,0676.2,31.0
2021-07-26T08:53:00Z,00000200,00000000,0000.68,0000.33,0000.26,-000.00,0000.07,0000.32,0000.29,0000.41,0000.21,18.3,24.6,07.0,04.7,0676.2,31.0
2021-07-26T08:54:00Z,00000200,00000000,-000.11,0000.35,0000.24,-000.01,0000.21,-000.02,-000.07,-000.10,0000.13,18.3,24.6,07.0,04.8,0676.2,31.0
2021-07-26T08:55:00Z,00000200,00000000,0000.25,0000.15,0000.18,0000.67,0000.30,-000.13,-000.22,0000.06,0000.03,18.3,24.6,06.9,04.7,0676.2,31.0
2021-07-26T08:56:00Z,00000200,00000000,0000.55,0000.49,0000.52,-000.12,-000.13,0000.16,0000.15,-000.04,-000.24,18.3,24.6,06.9,04.7,0676.2,31.0
2021-07-26T08:57:00Z,00000200,40000000,,,,,,,-000.28,-000.03,0000.10,18.3,24.6,07.4,05.0,0676.2,31.0
2021-07-26T08:58:00Z,00000200,60000000,,,,,,,0000.14,-000.38,0000.16,18.0,24.7,06.8,04.5,0675.2,31.0
2021-07-26T08:59:00Z,00000200,20000000,,,,,,,0000.11,0000.50,-000.31,18.0,24.8,06.7,04.4,0675.2,31.0
